H-2A DEB, 43069

Orbit data source: Space-Track

H-2A DEB, 43069 is space debris in SSO originally from a launch on Sat, 23 Dec 2017 UTC launched from the Tanegashima Space Center (TNSTA). Debris objects in space refer to the collection of defunct objects orbiting the Earth. Examples of debris include non-operational satellites, rocket bodies, and fragments generated from explosions, collisions, or faulty payload assembly.

Loading next visibility...
Identifier
43069, 2017-082E
Orbit
SSO
Country
Flag of JPJP / JPN
Related business
Manufacturer
MELCO
Mission
Spacecraft
Bus & Motor
Unknown
Mass
Unknown
Launch date (UTC)
2017-12-23 (8 years ago)
Launch vehicle
Unknown
Launch site
Tanegashima Space Center (TNSTA)
Object type
Payload
Rocket body
Debris
Shape & HBR
Unknown shape, 0.1 m
Radar Cross Section
Small (<0.1 m²)

Expand to show TLE details & history
Last TLE update: 9 hours ago

TLE from 9 hours ago
0 H-2A DEB
1 43069U 17082E   25295.16137887  .00006841  00000-0  15946-2 0  9990
2 43069  98.2751 359.7956 0025176 147.8551 212.4187 14.54900617412090
Epoch: 2025-10-22T03:52Z
TLE epoch observation values (Epoch: 2025-10-22T03:52:23.134Z)
Latitude
-0.00003°
Longitude
-89.13975°
Altitude
727.743 km
Speed
7.483 km/s
True Right ascension
23h 59m 10s
True Declination
0° 00' 00"
Sunlit
Object was in full shadow at epoch
Visualization orbit readout
Latitude
Unknown
Longitude
Unknown
Altitude
Unknown
Speed
Unknown
Apparent Right ascension
Unknown
Apparent Declination
Unknown
Sunlit
N/A
Visualization observer readout
Local Sidereal Time
08:06:21
Azimuth
Unknown
Elevation
Unknown
Doppler factor
Unknown
Orbital elements
Apogee altitude
724.616 km
Perigee altitude
688.942 km
Semi-major axis
7,084.916 km
Eccentricity
0.00252
Inclination
98.2751°
RAAN
359.7956°
Arg. of periapsis
147.8551°
True anomaly
212.26445°
Mean anomaly
212.4187°
Eccentric anomaly
212.34153°
Mean motion
3.63949 °/min
Orbital period
98.91 mins
BSTAR
0.0015946
Loading maneuver chart data...
Computing Atmospheric mass density...
Loading historical data...
Loading historical data...
Loading historical data...
Loading historical data...
Loading historical data...
Loading historical data...
Loading historical data...
Other satellites on launch #82 in the year 2017 (2017-12-23 UTC)

Documentation

Showing up to 5 results
|